sat.trackr.live / text

‹ back to catalog

FLOCK 4H-13

NORAD 66716 · 2025-276BC

PAYLOAD ACTIVE UNKNOWN

§ Identity

Operator
Country
US
Launch date
2025-11-28
Launch site
AFWTR
Launch vehicle
Mass (kg)
RCS (m²)

Purposes: earth_obs

External: N2YO · Heavens-Above · Gunter

§ Orbital elements

Epoch: 2026-05-25T03:09:07.790688Z

Period
94.71 min
Inclination
97.4226°
Eccentricity
0.0002252
Mean motion
15.20389760 rev/d
Perigee alt
503.1 km
Apogee alt
506.2 km
Semi-major
6,882.8 km
B*
2.5556e-4
RAAN
219.3242°
Arg perigee
68.4909°
Mean anomaly
291.6567°
Rev number
2,693

§ Raw data

FLOCK 4H-131 66716U 25276BC  26145.13134017  .00005499  00000+0  25556-3 0  99982 66716  97.4226 219.3242 0002252  68.4909 291.6567 15.20389760 26935

JSON: /api/v1/satellites/66716 · /tle

For live sub-satellite position, see the globe view (requires WebGL).

§ Visibility from observer

Set your observer location to see the next 7 days of passes ≥ 10°. The values pass through the URL so the page stays shareable.

No JS? Fill the form by hand. The geolocation button needs JavaScript.